DateTimeUTC,F1_A11,F1_S11,BsB_S11,BsG_S11,BsR_S11,BbsB_S11,BbsG_S11,BbsR_S11,BaB_A11,BaG_A11,BaR_A11,Tu_S11,T_S11,Uu_S11,U_S11,P_S11,T1_A11
2021-07-19T21:00:00Z,00000200,20000000,,,,,,,-000.39,-000.44,-000.19,20.0,26.3,16.5,11.3,0674.1,31.1
2021-07-19T21:01:00Z,00000200,20000000,,,,,,,0000.18,0000.45,0000.01,20.0,26.3,16.5,11.3,0674.1,31.1
2021-07-19T21:02:00Z,00000200,20000000,,,,,,,-000.03,-000.12,0000.42,19.9,26.3,16.6,11.3,0674.1,31.1
2021-07-19T21:03:00Z,00000200,60000000,,,,,,,0000.24,-000.00,-000.28,19.9,26.3,16.6,11.3,0674.1,31.1
2021-07-19T21:04:00Z,00000200,40000000,0000.35,-000.12,0000.01,-000.25,0000.05,-000.12,-000.16,-000.26,-000.14,20.0,26.2,16.6,11.4,0675.0,31.1
2021-07-19T21:05:00Z,00000200,00000000,0000.01,-000.01,0000.07,-000.04,-000.02,0000.37,-000.11,0000.03,0000.16,20.1,26.1,16.6,11.5,0675.1,31.2
2021-07-19T21:06:00Z,00000200,00000000,0000.72,-000.24,-000.23,-000.15,0000.02,-000.12,-000.02,-000.07,-000.17,20.1,26.1,16.7,11.6,0675.1,31.2
2021-07-19T21:07:00Z,00000200,00000000,0000.63,-000.14,0000.15,-000.05,0000.21,0000.34,0000.39,0000.31,0000.18,20.1,26.1,16.6,11.5,0675.1,31.1
2021-07-19T21:08:00Z,00000200,00000000,0000.94,-000.16,-000.46,-000.49,-000.06,-000.24,-000.28,-000.07,0000.00,20.1,26.1,16.7,11.6,0675.1,31.2
2021-07-19T21:09:00Z,00000200,00000000,0000.52,-000.16,0000.17,-000.00,0000.21,0000.12,-000.23,-000.11,-000.33,20.1,26.1,16.7,11.6,0675.1,31.1
2021-07-19T21:10:00Z,00000200,00000000,0000.21,-000.22,-000.03,0000.18,0000.32,-000.08,0000.32,0000.12,0000.38,20.1,26.1,16.7,11.6,0675.1,31.2
2021-07-19T21:11:00Z,00000200,00000000,0000.22,0000.06,0000.00,0000.31,-000.03,0000.00,0000.08,-000.01,-000.05,20.1,26.1,16.8,11.7,0675.1,31.1
2021-07-19T21:12:00Z,00000200,00000000,0000.21,0000.07,0000.05,-000.49,0000.26,0000.09,-000.28,-000.26,-000.02,20.1,26.1,16.8,11.7,0675.1,31.1
2021-07-19T21:13:00Z,00000200,00000000,-000.02,0000.22,-000.02,0000.23,0000.02,-000.27,-000.11,0000.21,0000.08,20.1,26.1,16.7,11.6,0675.1,31.2
2021-07-19T21:14:00Z,00000200,00000000,0000.85,-000.16,0000.19,0000.45,0000.27,0000.26,0000.53,-000.18,-000.17,20.1,26.1,16.8,11.7,0675.1,31.1
2021-07-19T21:15:00Z,00000200,00000000,0000.83,0000.02,-000.06,-000.03,0000.29,-000.08,-000.35,0000.29,0000.18,20.1,26.1,16.7,11.6,0675.1,31.1
2021-07-19T21:16:00Z,00000200,00000000,-000.37,-000.05,0000.18,0000.04,-000.01,0000.04,-000.16,-000.37,-000.00,20.1,26.1,16.8,11.7,0675.1,31.1
2021-07-19T21:17:00Z,00000200,00000000,0000.14,-000.14,-000.07,-000.49,0000.14,-000.09,0000.29,0000.23,-000.41,20.1,26.1,16.8,11.7,0675.1,31.2
2021-07-19T21:18:00Z,00000200,00000000,-000.38,-000.00,-000.12,-000.33,0000.25,-000.42,-000.44,-000.26,0000.26,20.1,26.1,16.9,11.7,0675.1,31.1
2021-07-19T21:19:00Z,00000200,00000000,0000.33,0000.12,0000.02,-000.12,0000.22,-000.00,0000.24,0000.25,0000.04,20.1,26.1,16.9,11.8,0675.1,31.2
2021-07-19T21:20:00Z,00000200,00000000,-000.13,-000.06,0000.03,-000.00,-000.03,0000.39,0000.26,0000.16,0000.29,20.1,26.1,17.0,11.8,0675.1,31.2
2021-07-19T21:21:00Z,00000200,00000000,0000.05,-000.11,-000.08,-000.20,0000.20,-000.21,-000.51,-000.26,-000.28,20.1,26.0,16.9,11.7,0675.1,31.1
2021-07-19T21:22:00Z,00000200,00000000,-000.51,-000.25,-000.14,0000.15,0000.09,-000.09,0000.29,-000.23,0000.12,20.1,26.1,16.9,11.8,0675.1,31.2
2021-07-19T21:23:00Z,00000200,00000000,-000.16,-000.16,0000.48,0000.37,-000.01,0000.07,0000.12,0000.38,-000.09,20.1,26.1,17.0,11.8,0675.1,31.2
2021-07-19T21:24:00Z,00000200,00000000,0000.30,-000.29,0000.13,0000.16,0000.28,0000.21,0000.13,0000.00,0000.01,20.1,26.1,17.0,11.8,0675.1,31.1
2021-07-19T21:25:00Z,00000200,00000000,0000.87,0000.04,-000.02,0000.04,0000.38,-000.06,-000.22,-000.05,0000.02,20.1,26.1,17.0,11.8,0675.1,31.1
2021-07-19T21:26:00Z,00000200,00000000,0000.17,0000.01,-000.12,-000.12,0000.34,0000.20,-000.21,-000.35,0000.03,20.1,26.1,17.1,11.9,0675.1,31.1
2021-07-19T21:27:00Z,00000200,00000000,-000.17,0000.05,-000.10,0000.46,0000.21,0000.00,-000.11,0000.17,-000.19,20.1,26.1,17.1,11.9,0675.1,31.1
2021-07-19T21:28:00Z,00000200,00000000,0000.24,-000.21,-000.02,0000.02,0000.13,0000.39,0000.27,-000.10,-000.04,20.1,26.1,17.1,11.9,0675.1,31.1
2021-07-19T21:29:00Z,00000200,00000000,-000.04,0000.22,-000.14,0000.51,0000.23,0000.36,0000.06,-000.08,0000.18,20.1,26.1,17.2,12.0,0675.1,31.1
2021-07-19T21:30:00Z,00000200,00000000,0000.28,-000.15,0000.13,0000.09,0000.11,0000.02,-000.24,0000.17,-000.12,20.1,26.1,17.2,12.0,0675.1,31.1
2021-07-19T21:31:00Z,00000200,00000000,0000.97,-000.19,-000.10,0000.36,0000.16,-000.06,0000.15,-000.13,0000.09,20.1,26.1,17.3,12.0,0675.1,31.2
2021-07-19T21:32:00Z,00000200,00000000,0000.42,-000.15,-000.25,-000.30,0000.30,0000.03,-000.15,0000.11,-000.04,20.1,26.1,17.2,12.0,0675.1,31.1
2021-07-19T21:33:00Z,00000200,00000000,0000.43,0000.06,-000.13,-000.03,0000.23,-000.02,0000.24,-000.30,0000.12,20.1,26.1,17.3,12.0,0675.1,31.1
2021-07-19T21:34:00Z,00000200,00000000,-000.07,0000.17,-000.20,0000.29,0000.06,0000.21,0000.05,0000.42,-000.04,20.1,26.1,17.4,12.1,0675.1,31.1
2021-07-19T21:35:00Z,00000200,00000000,-000.07,-000.18,0000.21,-000.26,0000.24,0000.33,-000.19,-000.14,-000.01,20.1,26.1,17.2,12.0,0675.1,31.1
2021-07-19T21:36:00Z,00000200,00000000,0000.32,-000.20,0000.00,0000.20,-000.04,0000.23,0000.09,-000.07,0000.10,20.1,26.0,17.2,12.0,0675.1,31.1
2021-07-19T21:37:00Z,00000200,00000000,-000.10,-000.31,-000.03,-000.09,0000.20,0000.09,-000.15,0000.13,0000.07,20.1,26.1,17.3,12.0,0675.1,31.1
2021-07-19T21:38:00Z,00000200,00000000,0000.24,0000.02,0000.02,-000.45,0000.05,0000.33,-000.08,0000.14,-000.12,20.1,26.1,17.3,12.1,0675.1,31.1
2021-07-19T21:39:00Z,00000200,00000000,0000.23,0000.17,0000.10,-000.04,0000.18,0000.20,0000.04,-000.24,0000.24,20.1,26.1,17.3,12.0,0675.1,31.1
2021-07-19T21:40:00Z,00000200,00000000,0000.51,-000.11,0000.41,-000.43,-000.00,0000.28,-000.16,0000.04,-000.35,20.1,26.1,17.3,12.1,0675.1,31.1
2021-07-19T21:41:00Z,00000200,00000000,0000.20,-000.06,0000.32,0000.11,0000.16,-000.02,-000.03,-000.24,0000.05,20.1,26.1,17.3,12.1,0675.1,31.1
2021-07-19T21:42:00Z,00000200,00000000,-000.28,0000.03,0000.18,0000.55,-000.04,0000.17,0000.11,0000.22,-000.21,20.1,26.1,17.4,12.1,0675.1,31.1
2021-07-19T21:43:00Z,00000200,00000000,0000.64,-000.13,-000.28,0000.24,0000.19,-000.04,-000.25,-000.34,0000.46,20.1,26.0,17.4,12.1,0675.0,31.1
2021-07-19T21:44:00Z,00000200,00000000,0000.10,0000.51,-000.03,0000.02,-000.01,-000.25,0000.32,-000.03,-000.29,20.1,26.0,17.4,12.1,0675.1,31.1
2021-07-19T21:45:00Z,00000200,00000000,0000.80,-000.44,-000.05,0000.09,0000.15,0000.15,-000.31,0000.08,0000.13,20.1,26.1,17.3,12.0,0675.1,31.1
2021-07-19T21:46:00Z,00000200,00000000,0000.50,-000.05,0000.41,0000.17,0000.11,0000.22,0000.19,-000.09,0000.05,20.1,26.0,17.3,12.0,0675.0,31.1
2021-07-19T21:47:00Z,00000200,00000000,0000.36,0000.28,-000.08,0000.07,0000.09,0000.08,-000.16,-000.17,-000.26,20.1,26.0,17.4,12.1,0675.0,31.1
2021-07-19T21:48:00Z,00000200,00000000,-000.10,-000.05,-000.01,-000.02,0000.28,0000.14,-000.43,-000.00,-000.13,20.1,26.0,17.4,12.1,0675.0,31.1
2021-07-19T21:49:00Z,00000200,00000000,0000.07,-000.29,-000.07,0000.25,-000.06,0000.18,0000.21,-000.16,0000.01,20.1,26.0,17.3,12.0,0675.0,31.2
2021-07-19T21:50:00Z,00000200,00000000,0000.47,0000.04,0000.16,0000.08,0000.27,-000.25,0000.06,0000.31,0000.10,20.1,26.0,17.4,12.1,0675.0,31.1
2021-07-19T21:51:00Z,00000200,00000000,0000.17,-000.18,-000.04,0000.17,0000.15,-000.14,0000.15,-000.02,0000.05,20.1,26.0,17.4,12.1,0675.0,31.1
2021-07-19T21:52:00Z,00000200,00000000,-000.12,-000.23,-000.41,-000.41,0000.31,-000.15,-000.18,-000.18,-000.22,20.1,26.0,17.2,12.0,0675.0,31.1
2021-07-19T21:53:00Z,00000200,00000000,0000.38,-000.43,0000.08,0000.18,0000.36,0000.11,0000.11,0000.32,0000.08,20.1,26.0,17.3,12.1,0675.0,31.1
2021-07-19T21:54:00Z,00000200,00000000,0000.22,-000.09,0000.34,0000.27,0000.40,0000.21,-000.21,-000.28,-000.08,20.0,26.0,17.2,12.0,0675.0,31.1
2021-07-19T21:55:00Z,00000200,00000000,-000.39,-000.50,0000.19,0000.42,0000.26,0000.11,0000.02,-000.27,0000.04,20.0,26.0,17.3,12.1,0675.0,31.1
2021-07-19T21:56:00Z,00000200,00000000,0000.62,0000.16,0000.16,-000.47,0000.21,-000.02,-000.13,0000.21,-000.20,20.0,26.0,17.2,12.0,0675.0,31.1
2021-07-19T21:57:00Z,00000200,40000000,,,,,,,-000.02,-000.32,0000.15,20.1,26.0,16.9,11.8,0675.1,31.1
2021-07-19T21:58:00Z,00000200,60000000,,,,,,,-000.19,-000.05,-000.26,19.9,26.1,17.3,11.8,0674.1,31.1
2021-07-19T21:59:00Z,00000200,20000000,,,,,,,0000.05,-000.05,-000.07,19.9,26.2,17.3,11.8,0674.0,31.1
